Date String (YYYY-MM-DD hh:mm:ss) UTC,Instrument flags,Ambient pressure (hPa),Sample flow (lpm),Bypass flow (lpm),Sample temperature (°C),Ambient temperature (°C),ASC tube jacket temperature (°C),LED temperature (°C),Box temperature (°C),Sample RH (%),Span deviation,Mass concentration (μg/m³),Mass concentration (μg/m³),Mass concentration (μg/m³)
DateTimeUTC,F1_M11,P_M11,Q1_M11,Q2_M11,T1_M11,T2_M11,T3_M11,T4_M11,T5_M11,U1_M11,ZSPAN_M11,X0_M11,X2_M11,X1_M11
2023-01-26 20:00:00,,0823.8,5.02,0.00,23.1,22.2,00.0,31.7,25.0,05.2,0000.0,0001.56,0000.72,0000.56
2023-01-26 20:01:00,,0823.8,4.98,0.00,23.1,22.2,00.0,31.7,25.0,05.0,0000.0,0001.17,0000.69,0000.56
2023-01-26 20:02:00,,0823.7,5.03,0.00,23.2,22.2,00.0,31.8,25.0,05.1,0000.0,0000.92,0000.66,0000.56
2023-01-26 20:03:00,,0823.7,5.00,0.00,23.2,22.2,00.0,31.8,25.0,05.2,0000.0,0000.91,0000.66,0000.56
2023-01-26 20:04:00,,0823.7,5.01,0.00,23.2,22.2,00.0,31.8,25.1,05.4,0000.0,0000.89,0000.64,0000.56
2023-01-26 20:05:00,,0823.7,5.00,0.00,23.2,22.2,00.0,31.8,25.1,05.6,0000.0,0000.86,0000.62,0000.56
2023-01-26 20:06:00,,0823.7,4.98,0.00,23.2,22.2,00.0,31.9,25.1,05.7,0000.0,0000.85,0000.63,0000.56
2023-01-26 20:07:00,,0823.7,4.97,0.00,23.3,22.2,00.0,31.9,25.1,05.5,0000.0,0000.87,0000.64,0000.57
2023-01-26 20:08:00,,0823.6,5.01,0.00,23.2,22.1,00.0,31.9,25.1,05.6,0000.0,0000.88,0000.65,0000.58
2023-01-26 20:09:00,,0823.6,5.00,0.00,23.2,22.0,00.0,31.9,25.1,05.7,0000.0,0000.88,0000.65,0000.58
2023-01-26 20:10:00,,0823.5,5.02,0.00,23.2,22.0,00.0,31.9,25.1,05.5,0000.0,0000.87,0000.64,0000.58
2023-01-26 20:11:00,,0823.4,5.01,0.00,23.2,22.0,00.0,31.9,25.0,05.9,0000.0,0001.33,0000.65,0000.58
2023-01-26 20:12:00,,0823.3,4.99,0.00,23.2,22.1,00.0,31.9,25.0,05.8,0000.0,0001.68,0000.67,0000.58
2023-01-26 20:13:00,,0823.4,5.00,0.00,23.2,22.1,00.0,31.9,25.0,05.8,0000.0,0002.06,0000.70,0000.60
2023-01-26 20:14:00,,0823.4,5.00,0.00,23.2,22.1,00.0,32.0,25.0,06.1,0000.0,0002.23,0000.70,0000.60
2023-01-26 20:15:00,,0823.3,4.99,0.00,23.2,22.1,00.0,32.0,24.9,05.8,0000.0,0003.05,0000.71,0000.61
2023-01-26 20:16:00,,0823.2,5.01,0.00,23.2,22.1,00.0,32.0,25.0,05.7,0000.0,0003.03,0000.71,0000.62
2023-01-26 20:17:00,,0823.3,5.01,0.00,23.3,22.1,00.0,32.0,25.0,05.8,0000.0,0003.00,0000.70,0000.62
2023-01-26 20:18:00,,0823.2,4.99,0.00,23.3,22.1,00.0,32.0,25.0,05.7,0000.0,0002.99,0000.69,0000.62
2023-01-26 20:19:00,,0823.2,4.99,0.00,23.3,22.1,00.0,32.0,25.0,05.8,0000.0,0002.99,0000.69,0000.62
2023-01-26 20:20:00,,0823.1,4.99,0.00,23.3,22.1,00.0,32.0,25.1,05.8,0000.0,0003.20,0000.71,0000.63
2023-01-26 20:21:00,,0823.1,5.00,0.00,23.3,22.1,00.0,32.0,25.1,05.9,0000.0,0004.71,0000.73,0000.65
2023-01-26 20:22:00,,0823.2,5.00,0.00,23.3,22.1,00.0,32.0,25.1,06.0,0000.0,0004.30,0000.75,0000.66
2023-01-26 20:23:00,,0823.1,4.99,0.00,23.3,22.1,00.0,32.1,25.1,05.8,0000.0,0004.00,0000.76,0000.66
2023-01-26 20:24:00,,0823.1,4.99,0.00,23.3,22.1,00.0,32.1,25.1,05.6,0000.0,0003.67,0000.75,0000.65
2023-01-26 20:25:00,,0823.1,5.01,0.00,23.3,22.1,00.0,32.1,25.1,05.8,0000.0,0003.52,0000.76,0000.66
2023-01-26 20:26:00,,0823.1,5.00,0.00,23.3,22.1,00.0,32.1,25.1,06.2,0000.0,0002.73,0000.76,0000.66
2023-01-26 20:27:00,,0823.1,4.99,0.00,23.3,22.1,00.0,32.1,25.1,05.9,0000.0,0002.79,0000.78,0000.67
2023-01-26 20:28:00,,0823.1,5.03,0.00,23.4,22.2,00.0,32.1,25.1,06.0,0000.0,0002.83,0000.80,0000.66
2023-01-26 20:29:00,,0823.2,5.02,0.00,23.4,22.2,00.0,32.1,25.2,05.4,0000.0,0002.88,0000.82,0000.67
2023-01-26 20:30:00,,0823.1,4.99,0.00,23.4,22.2,00.0,32.1,25.2,06.1,0000.0,0002.88,0000.82,0000.67
2023-01-26 20:31:00,,0823.1,5.00,0.00,23.4,22.2,00.0,32.1,25.2,06.1,0000.0,0002.71,0000.81,0000.65
2023-01-26 20:32:00,,0823.1,5.01,0.00,23.4,22.2,00.0,32.1,25.2,05.8,0000.0,0001.19,0000.79,0000.63
2023-01-26 20:33:00,,0823.0,5.02,0.00,23.4,22.2,00.0,32.2,25.2,05.9,0000.0,0001.17,0000.78,0000.63
2023-01-26 20:34:00,,0823.0,5.00,0.00,23.4,22.2,00.0,32.2,25.2,05.7,0000.0,0001.16,0000.77,0000.63
2023-01-26 20:35:00,,0823.0,5.00,0.00,23.4,22.2,00.0,32.2,25.2,05.9,0000.0,0001.23,0000.80,0000.64
2023-01-26 20:36:00,,0823.0,5.00,0.00,23.4,22.2,00.0,32.2,25.2,05.5,0000.0,0001.25,0000.81,0000.64
2023-01-26 20:37:00,,0823.1,4.99,0.00,23.4,22.2,00.0,32.2,25.2,05.6,0000.0,0001.29,0000.82,0000.63
2023-01-26 20:38:00,,0823.1,4.99,0.00,23.4,22.2,00.0,32.2,25.2,05.9,0000.0,0001.37,0000.83,0000.64
2023-01-26 20:39:00,,0823.1,5.00,0.00,23.4,22.2,00.0,32.2,25.2,06.4,0000.0,0001.44,0000.85,0000.65
2023-01-26 20:40:00,,0823.1,5.00,0.00,23.4,22.2,00.0,32.2,25.2,06.3,0000.0,0001.51,0000.86,0000.65
2023-01-26 20:41:00,,0823.1,5.00,0.00,23.4,22.2,00.0,32.2,25.2,06.3,0000.0,0001.65,0000.90,0000.65
2023-01-26 20:42:00,,0823.0,5.00,0.00,23.4,22.2,00.0,32.2,25.1,06.3,0000.0,0001.76,0000.93,0000.66
2023-01-26 20:43:00,,0823.0,5.00,0.00,23.5,22.2,00.0,32.2,25.1,06.4,0000.0,0001.83,0000.96,0000.67
2023-01-26 20:44:00,,0823.0,5.00,0.00,23.5,22.2,00.0,32.3,25.2,06.5,0000.0,0001.92,0000.98,0000.69
2023-01-26 20:45:00,,0823.0,5.01,0.00,23.5,22.2,00.0,32.3,25.1,05.8,0000.0,0001.92,0000.98,0000.69
2023-01-26 20:46:00,,0823.0,5.00,0.00,23.5,22.2,00.0,32.3,25.2,05.8,0000.0,0001.83,0000.94,0000.69
2023-01-26 20:47:00,,0823.1,5.00,0.00,23.5,22.2,00.0,32.3,25.2,05.7,0000.0,0001.76,0000.93,0000.69
2023-01-26 20:48:00,,0823.0,4.99,0.00,23.5,22.2,00.0,32.3,25.2,06.2,0000.0,0001.73,0000.92,0000.70
2023-01-26 20:49:00,,0822.9,4.99,0.00,23.5,22.2,00.0,32.3,25.3,05.8,0000.0,0001.63,0000.91,0000.69
2023-01-26 20:50:00,,0822.9,5.01,0.00,23.5,22.2,00.0,32.3,25.3,06.0,0000.0,0001.62,0000.90,0000.69
2023-01-26 20:51:00,,0823.0,4.99,0.00,23.5,22.2,00.0,32.3,25.3,06.1,0000.0,0001.65,0000.92,0000.70
2023-01-26 20:52:00,,0822.9,5.00,0.00,23.5,22.2,00.0,32.3,25.3,06.2,0000.0,0001.58,0000.91,0000.70
2023-01-26 20:53:00,,0822.9,5.01,0.00,23.5,22.3,00.0,32.3,25.3,06.3,0000.0,0001.43,0000.87,0000.70
2023-01-26 20:54:00,,0822.9,5.00,0.00,23.5,22.3,00.0,32.3,25.3,06.3,0000.0,0002.29,0000.88,0000.71
2023-01-26 20:55:00,,0822.9,5.00,0.00,23.5,22.3,00.0,32.3,25.3,05.9,0000.0,0002.43,0000.88,0000.71
2023-01-26 20:56:00,,0823.0,5.00,0.00,23.5,22.3,00.0,32.3,25.3,05.5,0000.0,0002.78,0000.92,0000.71
2023-01-26 20:57:00,,0823.0,5.00,0.00,23.5,22.3,00.0,32.3,25.3,05.8,0000.0,0002.93,0000.94,0000.72
2023-01-26 20:58:00,,0823.0,4.99,0.00,23.5,22.3,00.0,32.3,25.3,05.8,0000.0,0002.96,0000.96,0000.74
2023-01-26 20:59:00,,0823.0,4.99,0.00,23.5,22.3,00.0,32.3,25.4,06.1,0000.0,0003.06,0001.00,0000.73
